Location: Ravenna
(44.4180°N, 12.2010°E)
Time: 09:22:15
(UTC+02:00)

ISS - Visible Passes

Search period start: 08 May 2021 00:00
Search period end: 18 May 2021 00:00
Orbit: 418 x 421 km, 51.6° (Epoch: 08 May)

Date Brightness Start Highest point End Pass type
(mag) Time Alt. Az. Time Alt. Az. Time Alt. Az.
08 May -2.1 02:49:24 32° N 02:49:24 32° N 02:52:20 10° NE visible
08 May -1.4 04:23:55 10° NW 04:26:43 23° N 04:29:31 10° ENE visible
09 May -1.3 02:03:26 22° NE 02:03:26 22° NE 02:04:56 10° NE visible
09 May -1.4 03:36:22 10° WNW 03:39:05 23° N 03:41:53 10° NE visible
09 May -2.0 05:13:24 10° NW 05:16:34 35° NNE 05:19:42 10° E visible
10 May -0.6 01:17:27 11° NE 01:17:27 11° NE 01:17:33 10° NE visible
10 May -1.6 02:50:22 20° NW 02:51:29 24° N 02:54:20 10° NE visible
10 May -1.7 04:25:59 10° NW 04:29:00 28° NNE 04:32:00 10° ENE visible
11 May -1.6 02:04:21 26° N 02:04:21 26° N 02:06:51 10° NE visible
11 May -1.5 03:38:32 10° NW 03:41:25 25° N 03:44:17 10° ENE visible
11 May -3.3 05:15:17 10° NW 05:18:39 67° NNE 05:22:01 10° ESE visible
12 May -1.1 01:18:16 18° NE 01:18:16 18° NE 01:19:25 10° NE visible
12 May -1.3 02:51:12 11° NW 02:53:47 23° N 02:56:36 10° ENE visible
12 May -2.6 04:27:52 10° NW 04:31:10 46° NNE 04:34:27 10° E visible
13 May -1.3 02:05:02 19° NNW 02:06:10 23° N 02:08:58 10° NE visible
13 May -2.1 03:40:29 10° NW 03:43:38 35° NNE 03:46:46 10° E visible
14 May -1.4 01:18:38 24° N 01:18:38 24° N 01:21:24 10° NE visible
14 May -1.7 02:53:04 10° NW 02:56:04 29° NNE 02:59:04 10° ENE visible
14 May -3.9 04:29:46 10° WNW 04:33:09 80° SSW 04:36:32 10° SE visible
14 May -2.0 21:15:37 10° SSE 21:17:26 14° SE 21:19:15 10° E visible
14 May -3.8 22:50:26 10° WSW 22:53:49 87° NNW 22:55:40 25° ENE visible
15 May -1.6 00:28:01 10° WNW 00:30:58 27° NNW 00:33:54 10° NE visible
15 May -1.4 02:05:36 10° NW 02:08:29 25° N 02:11:21 10° ENE visible
15 May -3.4 03:42:20 10° NW 03:45:43 67° NNE 03:49:04 10° ESE visible
15 May -3.8 22:03:05 10° SW 22:06:24 59° SE 22:09:44 10° ENE visible
15 May -1.9 23:40:18 10° W 23:43:23 32° NNW 23:46:28 10° NE visible
16 May -1.3 01:18:04 10° NW 01:20:51 23° N 01:23:39 10° ENE visible
16 May -2.7 02:54:56 10° NW 02:58:13 46° NNE 03:01:30 10° E visible
16 May -3.0 04:31:56 10° WNW 04:34:56 30° SW 04:37:56 10° SSE visible
16 May -3.2 21:15:56 10° SSW 21:19:02 36° SE 21:22:10 10° ENE visible
16 May -2.4 22:52:36 10° W 22:55:50 41° NNW 22:59:03 10° NE visible
17 May -1.3 00:30:27 10° WNW 00:33:14 23° N 00:36:00 10° NE visible
17 May -2.1 02:07:32 10° NW 02:10:41 35° NNE 02:13:50 10° E visible
17 May -3.6 03:44:19 10° WNW 03:47:36 49° SW 03:50:52 10° SE visible
17 May -3.1 22:05:00 10° WSW 22:08:19 58° NNW 22:11:40 10° NE visible
17 May -1.3 23:42:47 10° WNW 23:45:37 24° N 23:48:26 10° NE visible
